Charleston, SC

5:32 PM EDT on August 20, 2017 (GMT -0400)
Charleston Air Force Base-International

Weather History for KCHS - October, 2013

Change the Weather History Date:

Sunday, October 20, 2013

  Actual Average Record
Temperature  
Mean Temperature 68 °F 66 °F  
Max Temperature 76 °F 76 °F 87 °F (1950)
Min Temperature 60 °F 55 °F 34 °F (1981)
Degree Days  
Heating Degree Days 0 2  
Month to date heating degree days 0 28  
Since 1 July heating degree days 0 31  
Cooling Degree Days 3 3  
Month to date cooling degree days 157 99  
Year to date cooling degree days 2385 2237  
Growing Degree Days 18 (Base 50)    
Moisture  
Dew Point 56 °F    
Average Humidity 69    
Maximum Humidity 84    
Minimum Humidity 53    
Precipitation  
Precipitation T in 0.11 in 2.75 in (1970)
Month to date precipitation 1.36 2.69  
Year to date precipitation 52.43 44.43  
Sea Level Pressure  
Sea Level Pressure 30.00 in    
Wind  
Wind Speed 7 mph (NNE)    
Max Wind Speed 17 mph    
Max Gust Speed 21 mph    
Visibility 10 miles    
Events      
T = Trace of Precipitation, MM = Missing Value Source: NWS Daily Summary

Daily Weather History Graph

Daily Weather History Graph

Search for Another Location

Airport or City:

Trip Planner

Search our weather history database for the weather conditions in past years. The results will help you decide how hot, cold, wet, or windy it might be!

Date:

Astronomy

Oct. 20, 2013 Rise Set
Actual Time 7:28 AM EDT 6:40 PM EDT
Civil Twilight 7:03 AM EDT 7:05 PM EDT
Nautical Twilight 6:34 AM EDT 7:34 PM EDT
Astronomical Twilight 6:05 AM EDT 8:03 PM EDT
Moon 7:54 PM EDT 8:59 AM EDT
Length of Visible Light 12h 02m
Length of Day
11h 12m
Full, 97% of the Moon is Illuminated
Oct 20
Full
Oct 26
Last Quarter
Nov 3
New
Nov 10
First Quarter
Nov 17
Full

Hourly Weather History & Observations

Time (EDT) Temp. Dew Point Humidity Pressure Visibility Wind Dir Wind Speed Gust Speed Precip Events Conditions
12:56 AM 68.0 °F 57.0 °F 68% 29.93 in 10.0 mi NNW 3.5 mph - N/A   Mostly Cloudy
1:56 AM 68.0 °F 54.0 °F 61% 29.93 in 10.0 mi NW 5.8 mph - N/A   Overcast
2:56 AM 66.9 °F 53.1 °F 61% 29.93 in 10.0 mi NNW 5.8 mph - N/A   Overcast
3:56 AM 66.0 °F 53.1 °F 63% 29.93 in 10.0 mi NNW 9.2 mph - N/A   Overcast
4:56 AM 62.1 °F 55.0 °F 78% 29.93 in 10.0 mi NNW 8.1 mph - 0.00 in   Overcast
5:56 AM 63.0 °F 55.9 °F 78% 29.93 in 10.0 mi North 6.9 mph - N/A   Mostly Cloudy
6:56 AM 63.0 °F 55.9 °F 78% 29.95 in 10.0 mi North 6.9 mph - N/A   Mostly Cloudy
7:56 AM 63.0 °F 57.0 °F 81% 29.98 in 10.0 mi North 6.9 mph - N/A   Mostly Cloudy
8:56 AM 64.9 °F 57.0 °F 75% 30.01 in 10.0 mi NNE 8.1 mph - N/A   Mostly Cloudy
9:56 AM 66.0 °F 55.9 °F 70% 30.03 in 10.0 mi NNE 12.7 mph - N/A   Mostly Cloudy
10:56 AM 68.0 °F 55.9 °F 65% 30.03 in 10.0 mi NE 13.8 mph - N/A   Mostly Cloudy
11:56 AM 70.0 °F 55.9 °F 61% 30.05 in 10.0 mi ENE 10.4 mph - N/A   Mostly Cloudy
12:56 PM 71.1 °F 55.9 °F 59% 30.04 in 10.0 mi ENE 9.2 mph - N/A   Mostly Cloudy
1:56 PM 73.0 °F 55.9 °F 55% 30.01 in 10.0 mi NNE 5.8 mph - N/A   Mostly Cloudy
2:56 PM 75.0 °F 57.0 °F 53% 30.00 in 10.0 mi East 8.1 mph - N/A   Mostly Cloudy
3:56 PM 75.0 °F 57.9 °F 55% 29.99 in 10.0 mi Variable 3.5 mph - N/A   Mostly Cloudy
4:56 PM 73.0 °F 57.9 °F 59% 30.01 in 10.0 mi East 5.8 mph - N/A   Scattered Clouds
5:56 PM 70.0 °F 57.0 °F 63% 30.01 in 10.0 mi ESE 5.8 mph - N/A   Scattered Clouds
6:56 PM 68.0 °F 57.0 °F 68% 30.03 in 10.0 mi East 6.9 mph - N/A   Scattered Clouds
7:56 PM 64.9 °F 57.9 °F 78% 30.04 in 10.0 mi NE 4.6 mph - N/A   Scattered Clouds
8:56 PM 63.0 °F 55.9 °F 78% 30.06 in 10.0 mi NE 6.9 mph - N/A   Mostly Cloudy
9:56 PM 62.1 °F 55.9 °F 80% 30.06 in 10.0 mi NNE 4.6 mph - N/A   Scattered Clouds
10:56 PM 61.0 °F 55.0 °F 81% 30.07 in 10.0 mi NNE 6.9 mph - N/A   Mostly Cloudy
11:56 PM 61.0 °F 54.0 °F 78% 30.07 in 10.0 mi NNE 5.8 mph - N/A   Mostly Cloudy